User: anonymous   Login
Location: Mississauga
(43.5802°N, 79.6166°W)
Time: 17:19:26
(UTC-04:00)
Language:

Cosmos 1437 Rocket - Orbit

View from above orbital plane
View from above orbital plane
View from above satellite
View from above satellite

Ground track
Ground track

The orbit data is extracted from the following two-line orbital elements,

1 13771U 83003B   17229.31637347  .00000955  00000-0  56097-4 0  9998
2 13771  81.1739 292.2724 0043310 163.6789 196.5844 15.09956747883019
Epoch (UTC): 17 August 2017 07:35:34
Eccentricity: 0.0043310
inclination: 81.1739°
perigee height: 506 km
apogee height: 566 km
right ascension of ascending node: 292.2724°
argument of perigee: 163.6789°
revolutions per day: 15.09956747
mean anomaly at epoch: 196.5844°
orbit number at epoch: 88301

The dashed part of the orbit path shows where the satellite is in the earth's shadow,  

DLR